CZ-6A DEB, 60759

Orbit data source: Space-Track

CZ-6A DEB, 60759 is space debris in LEO originally from a launch on Tue, 06 Aug 2024 UTC launched from the Taiyaun Space Center, China (TSC). Debris objects in space refer to the collection of defunct objects orbiting the Earth. Examples of debris include non-operational satellites, rocket bodies, and fragments generated from explosions, collisions, or faulty payload assembly.

Loading next visibility...
Identifier
60759, 2024-140EJ
Orbit
LEO
Country
Flag of CNCN / PRC
Related business
Manufacturer
SAST
Mission
Spacecraft
Bus & Motor
Unknown
Mass
Unknown
Launch date (UTC)
2024-08-06 (1 year ago)
Launch vehicle
Unknown
Launch site
Taiyaun Space Center, China (TSC)
Object type
Payload
Rocket body
Debris
Shape & HBR
Unknown shape, 0.3 m
Radar Cross Section
Medium (>0.1 m² and <1 m²)

Expand to show TLE details & history
Last TLE update: 1 day ago

TLE from 1 day ago
0 CZ-6A DEB
1 60759U 24140EJ  25312.72831376  .00002696  00000-0  12631-2 0  9996
2 60759  89.0076 300.1952 0052430 176.8005 183.3530 14.19213732 64758
Epoch: 2025-11-08T17:28Z
TLE epoch observation values (Epoch: 2025-11-08T17:28:46.308Z)
Latitude
-0.00011°
Longitude
-10.15151°
Altitude
868.791 km
Speed
7.399 km/s
True Right ascension
20h 00m 46s
True Declination
0° 00' 00"
Sunlit
Object was in daylight at epoch
Visualization orbit readout
Latitude
Unknown
Longitude
Unknown
Altitude
Unknown
Speed
Unknown
Apparent Right ascension
Unknown
Apparent Declination
Unknown
Sunlit
N/A
Visualization observer readout
Local Sidereal Time
20:01:18
Azimuth
Unknown
Elevation
Unknown
Doppler factor
Unknown
Orbital elements
Apogee altitude
862.731 km
Perigee altitude
787.199 km
Semi-major axis
7,203.102 km
Eccentricity
0.00524
Inclination
89.0076°
RAAN
300.1952°
Arg. of periapsis
176.8005°
True anomaly
183.31809°
Mean anomaly
183.353°
Eccentric anomaly
183.33552°
Mean motion
3.55029 °/min
Orbital period
101.4 mins
BSTAR
0.0012631
Loading maneuver chart data...
Computing Atmospheric mass density...

Documentation

Showing up to 5 results
|